Back to catalog

ASIASTAR

AliveCommunicationsGEO
NORAD 26107·PAYLOAD·🇺🇸 United States

Launched Mar 21, 2000 from Guiana Space Centre

Loading…

TLE

FreshSource: Space-Track

Epoch: Sep 13, 2026, 21:11 UTC

1 26107U 00016A   26256.88314925 -.00000340  00000-0  00000+0 0  9991
2 26107   9.3325  57.1788 0003935 120.0146 238.5803  1.00268896 96802

Track ASIASTAR in real time with AllMySat

Download on the App Store